Regional Weather Roundup
Issued by NWS

Home | Current Version | Previous Version | Graphics & Text | Print | Product List | Glossary On
Versions: 1 2 3 4 5 6 7 8 9 10 11 12 13 14 15 16 17 18 19 20 21 22 23 24 25 26 27 28 29 30 31 32 33 34 35 36 37 38 39 40 41 42 43 44 45 46 47 48 49 50
000
ASUS43 KDMX 251001
RWRIA

WEATHER ROUNDUP FOR IOWA
NATIONAL WEATHER SERVICE DES MOINES IA
400 AM CST SAT FEB 25 2017

NOTE: "FAIR" INDICATES FEW OR NO CLOUDS BELOW 12,000 FEET WITH NO
SIGNIFICANT WEATHER AND/OR OBSTRUCTIONS TO VISIBILITY.

* - THESE STATIONS ARE NOT NWS STATIONS...THUS NOT UNDER NWS
QUALITY CONTROL.  THEY ALSO DO NOT REPORT WEATHER SUCH
AS PRECIPITATION OR FOG.

IAZ001>003-012>014-020>022-031>034-043>046-251100-
   NORTHWEST IOWA

CITY           SKY/WX    TMP DP  RH WIND       PRES   REMARKS
CARROLL *      PTCLDY    18  16  93 NW15      30.00F WCI   3
CHEROKEE *     CLEAR     17  13  84 NW12G18   30.03S WCI   4
DENISON *      CLEAR     16  12  86 NW13      30.02S WCI   2
LE MARS *      PTCLDY    16  12  86 NW9       30.07S WCI   4
SHELDON *      CLEAR     16  16 100 NW14      30.01S WCI   1
SIOUX CITY     CLEAR     21  14  74 NW15      30.07F WCI   8
SPENCER        CLEAR     14   8  77 NW12      30.00S WCI   0
STORM LAKE *   CLEAR     14  10  85 NW17      29.99F WCI  -3
$$

IAZ055>058-069>071-079>083-090>094-251100-
   SOUTHWEST IOWA

CITY           SKY/WX    TMP DP  RH WIND       PRES   REMARKS
ATLANTIC *     CLEAR     18  14  86 NW14      30.04S WCI   4
AUDUBON *      CLEAR     16  12  86 NW9       30.02S WCI   4
CLARINDA *     CLEAR     19  14  79 NW9G16    30.09F WCI   9
COUNCIL BLFS * CLEAR     16  16 100 NW9       30.07S WCI   4
CRESTON *      CLEAR     18  10  73 NW15G21   30.03R WCI   3
HARLAN  *      CLEAR     18  14  86 NW16      30.07S WCI   3
LAMONI         CLEAR     18  12  77 NW13      30.01R WCI   5
RED OAK *      CLEAR     18  14  86 NW12      30.07S WCI   5
SHENANDOAH *   CLEAR     21  14  73 NW7G14    30.10S WCI  13
$$

IAZ047>049-059>061-072>074-084-251100-
   CENTRAL IOWA

CITY           SKY/WX    TMP DP  RH WIND       PRES   REMARKS
AMES           CLEAR     18  13  80 NW15G24   29.97S WCI   4
ANKENY *       CLEAR     18  12  79 W12G20    29.99S WCI   5
BOONE *        CLEAR     16  10  79 NW18      29.95F WCI  -1
CHARITON *     CLEAR     18  14  86 NW16      29.97R WCI   3
DES MOINES     MOCLDY    19  12  74 NW16      29.98S WCI   4
GRINNELL*      CLEAR     18  14  86 NW18      29.93R WCI   2
KNOXVILLE *    MOCLDY    19  12  73 NW17G24   29.95S WCI   4
MARSHALLTOWN   CLEAR     17  13  84 NW20      29.92R WCI   1
NEWTON *       MOCLDY    18  14  86 NW18G25   29.94R WCI   2
PELLA *        PTCLDY    19  14  82 NW15G22   29.97R WCI   5
PERRY *          N/A     18  13  81 NW15      30.00S WCI   4
$$

IAZ004>006-015-016-023>025-035-036-251100-
   NORTH CENTRAL IOWA

CITY           SKY/WX    TMP DP  RH WIND       PRES   REMARKS
ALGONA *       LGT SNOW  14   9  79 NW14G21   29.95S VSB 1   WCI  -1
CLARION *      CLEAR     14  10  85 NW16      29.95R WCI  -2
ESTHERVILLE    CLEAR     13   8  81 NW21      29.97R WCI  -5
FORT DODGE *   CLEAR     12   7  79 NW9       29.98S WCI   0
MASON CITY     CLEAR     14  10  84 NW23      29.91S WCI  -5
FOREST CITY *    N/A     14  10  85 NW16      29.92R WCI  -2
WEBSTER CITY * CLEAR     16   9  73 NW15G23   29.95R WCI   1
IOWA FALLS *     N/A     17  13  83 NW20      29.93R WCI   1
$$

IAZ007>011-017>019-026>030-037>042-050>054-066-251100-
   NORTHEAST IOWA

CITY           SKY/WX    TMP DP  RH WIND       PRES   REMARKS
CEDAR RAPIDS   PTCLDY    18  13  80 NW22      29.85R WCI   1
CHARLES CITY * PTCLDY    14   9  79 NW13      29.87S WCI   0
CLINTON *      PTCLDY    20  16  84 NW22G29   29.79R WCI   3
DECORAH *      CLOUDY    18  10  73 NW12G20   29.80R WCI   5
DUBUQUE        CLOUDY    18  14  84 NW18      29.77R FOG     WCI   2
MONTICELLO *   CLOUDY    19  14  79 NW16G24   29.81R WCI   5
OELWEIN *      CLOUDY    18  12  79 NW22      29.84R WCI   0
WATERLOO       CLEAR     16   9  74 NW12      29.88R WCI   3
$$

IAZ064-065-067-068-078-251100-
   EAST CENTRAL IOWA

CITY           SKY/WX    TMP DP  RH WIND       PRES   REMARKS
DAVENPORT      PTCLDY    20  15  81 NW23      29.81R WCI   3
IOWA CITY      PTCLDY    22  13  68 NW16      29.88R WCI   8
MUSCATINE *    MOCLDY    23  16  74 NW16G26   29.87R WCI  10
QUAD CITIES    CLOUDY    24  16  71 NW20G31   29.81R WCI  10
$$

IAZ062-063-075>077-085>089-095>099-251100-
   SOUTHEAST IOWA

CITY           SKY/WX    TMP DP  RH WIND       PRES   REMARKS
BURLINGTON     CLOUDY    24  17  74 NW15G29   29.86R WCI  11
FAIRFIELD *    CLEAR     19  12  73 NW16      29.91R WCI   5
KEOKUK *       PTCLDY    23  16  74 NW15G24   29.90R WCI  10
CENTERVILLE *    N/A     18  16  93 W15       29.97R WCI   3
OTTUMWA        CLEAR     20  13  74 NW18      29.93R WCI   5
WASHINGTON *   PTCLDY    21  14  73 NW17G25   29.90R WCI   7
$$

ABBREVIATIONS USED IN REMARKS
   TC - TEMPERATURES IN CELSIUS
  WCI - WIND CHILL INDEX
   HX - HEAT INDEX
  VSB - VISIBILITY
$$





USA.gov is the U.S. government's official web portal to all federal, state and local government web resources and services.